Location: Bellflower
(33.8817°N, 118.1170°W)
Time: 14:02:41
(UTC+00:00)

SL-8 R/B - Pass Details

Date: 23 November 2020
Orbit: 656 x 668 km, 48.4° (Epoch: 21 January)

Event Time Altitude Azimuth Distance (km) Brightness Sun altitude
Exits shadow 12:32:33 49° 4° (N) 853 4.1 -24.7°
Maximum altitude 12:33:12 53° 34° (NE) 810 4.2 -24.6°
Drops below altitude 10° 12:37:53 10° 112° (ESE) 2,076 7.3 -23.6°
Sets 12:40:17 0° 117° (ESE) 2,988 8.3 -23.1°
